Home > Weather > Cape Canaveral > Past weeks

Flag for USA Past Weather in Cape Canaveral, Florida, USA — Yesterday and Last 2 Weeks

Now
76 °F

Clear.


Feels Like: 76 °F
Forecast: 79 / 91 °F
Wind: No wind

Location: Cape Kennedy

Current Time: Jul 30, 2016 at 3:31:30 AM

Latest Report: Jul 30, 2016 at 2:58 AM


Visibility: 10 mi

Pressure: 30.03 "Hg

Humidity: 87%

Dew Point: 72 °F

Location of Cape CanaveralLocation

Past Weather in Cape Canaveral — Graph

°F

Cape Canaveral Temperature Yesterday

Maximum temperature yesterday: 93 °F (at 1:58 PM)
Minimum temperature yesterday: 78 °F (at 11:58 PM)
Average temperature yesterday: 85 °F

High & Low Weather Summary for the Past Weeks

 TemperatureHumidityPressure
High93 °F (Jul 28, 3:58 PM)93% (Jul 21, 6:58 AM)30.23 "Hg (Jul 21, 6:58 AM)
Low73 °F (Jul 25, 6:58 AM)50% (Jul 23, 3:58 PM)29.99 "Hg (Jul 23, 6:58 PM)
Average84 °F74%30.09 "Hg
* Reported Jul 15 1:58 AM — Jul 30 1:58 AM, Cape Canaveral, Weather by CustomWeather, © 2016

Note: Actual official high and low records may vary slightly from our data, if they occured in-between our weather recording intervals... More about our weather records

Advertising

Cape Canaveral Weather History for the Previous 24 Hours

Scroll right to see more
 ConditionsComfort  
Time TempWeatherWind HumidityBarometerVisibility
1:58 AM
Sat, Jul 30
76 °FClear.1 mph89%30.03 "Hg10 mi
12:58 AM76 °FClear.2 mph86%30.03 "Hg10 mi
11:58 PM
Fri, Jul 29
78 °FClear.1 mph82%30.04 "Hg10 mi
10:58 PM81 °FClear.3 mph78%30.04 "Hg10 mi
9:58 PM80 °FClear.2 mph80%30.03 "Hg10 mi
8:58 PM82 °FSunny.5 mph77%30.02 "Hg10 mi
7:58 PM84 °FPassing clouds.10 mph73%30.03 "Hg10 mi
6:58 PM87 °FSunny.5 mph72%30.04 "Hg10 mi
5:58 PM90 °FSunny.7 mph59%30.02 "Hg10 mi
4:58 PM90 °FSunny.12 mph64%30.01 "Hg10 mi
3:58 PM92 °FSunny.9 mph58%30.01 "Hg10 mi
2:58 PM92 °FSunny.10 mph58%30.03 "Hg10 mi
1:58 PM93 °FPassing clouds.12 mph54%30.04 "Hg10 mi
12:58 PM92 °FPassing clouds.9 mph56%30.05 "Hg10 mi
11:58 AM90 °FPassing clouds.8 mph62%30.06 "Hg10 mi
10:58 AM91 °FSunny.7 mph57%30.06 "Hg10 mi
9:58 AM88 °FSunny.6 mph67%30.06 "Hg10 mi
8:58 AM86 °FSunny.10 mph71%30.05 "Hg10 mi
7:58 AM82 °FSunny.6 mph86%30.05 "Hg10 mi
6:58 AM78 °FClear.5 mph91%30.04 "Hg10 mi
5:58 AM79 °FClear.3 mph91%30.04 "Hg10 mi
4:58 AM80 °FClear.5 mph89%30.03 "Hg10 mi
3:58 AM80 °FClear.5 mph89%30.02 "Hg10 mi
Weather by CustomWeather, © 2016

See weather overviewHow to use our weather pages